Flag for U.S.A. Weather past 2 weeks in Bentonville, Arkansas, U.S.A.

Now
84 °F

Passing clouds.


Feels Like: 86 °F
Forecast: 71 / 83 °F
Wind: 13 mph from Southwest

Location: Bentonville Weather Observing Station

Current Time: Aug 29, 2014 at 3:09:56 PM

Latest Report: Aug 29, 2014 at 2:15 PM


Visibility: 10 mi

Pressure: 29.94 "Hg

Humidity: 51%

Dew point: 64 °F

Location of BentonvilleLocation

Historic Weather in Bentonville — Graph

°F

Bentonville temperature yesterday

Maximum temperature yesterday: 91 °F (at 4:15 PM)
Minimum temperature yesterday: 70 °F (at 5:15 AM)
Average temperature yesterday: 80 °F

Past Weeks' High & Low Weather Summary

 TemperatureHumidityPressure
High99 °F (Aug 25, 5:15 PM)94% (Aug 17, 3:15 AM)30.17 "Hg (Aug 17, 3:15 AM)
Low64 °F (Aug 15, 5:55 AM)29% (Aug 25, 5:15 PM)29.87 "Hg (Aug 19, 1:55 AM)
Average81 °F65%30.00 "Hg
* Reported Aug 14 1:15 PM — Aug 29 1:55 PM, Bentonville, Weather by CustomWeather, © 2014

Note: Actual official high and low records may vary slightly from our data, if they occured in-between our weather recording intervals... More about our weather records

Advertising

Bentonville weather history for previous 24 hours

 ConditionsComfort  
Time TempWeatherWind HumidityBarometerVisibility
1:55 PM
Aug 29
86 °FScattered clouds.9 mph52%29.94 "Hg10 mi
1:35 PM88 °FPassing clouds.10 mph46%29.95 "Hg10 mi
12:55 PM84 °FSunny.10 mph51%29.95 "Hg10 mi
12:35 PM84 °FScattered clouds.12 mph55%29.96 "Hg10 mi
12:15 PM82 °FBroken clouds.15 mph58%29.97 "Hg10 mi
11:55 AM82 °FBroken clouds.10 mph58%29.97 "Hg10 mi
11:35 AM82 °FMostly cloudy.9 mph58%29.97 "Hg10 mi
11:15 AM82 °FMostly cloudy.13 mph66%29.96 "Hg10 mi
10:55 AM81 °FMostly cloudy.14 mph66%29.97 "Hg10 mi
10:35 AM82 °FMostly cloudy.14 mph62%29.97 "Hg10 mi
10:15 AM81 °FPartly sunny.12 mph66%29.97 "Hg10 mi
9:55 AM82 °FPassing clouds.12 mph66%29.96 "Hg10 mi
9:35 AM79 °FScattered clouds.13 mph74%29.95 "Hg10 mi
9:15 AM79 °FPartly sunny.7 mph70%29.95 "Hg10 mi
8:55 AM77 °FBroken clouds.8 mph74%29.94 "Hg10 mi
8:35 AM75 °FPartly sunny.7 mph78%29.94 "Hg10 mi
8:15 AM75 °FScattered clouds.7 mph74%29.94 "Hg10 mi
7:55 AM73 °FPassing clouds.5 mph78%29.95 "Hg10 mi
7:35 AM73 °FPassing clouds.5 mph78%29.95 "Hg10 mi
7:15 AM72 °FPartly cloudy.3 mph78%29.95 "Hg10 mi
6:55 AM72 °FPartly cloudy.No wind78%29.96 "Hg10 mi
6:35 AM72 °FPartly cloudy.5 mph78%29.96 "Hg10 mi
6:15 AM72 °FPassing clouds.3 mph78%29.94 "Hg10 mi
5:55 AM72 °FPassing clouds.3 mph78%29.94 "Hg10 mi
5:35 AM72 °FClear.6 mph78%29.93 "Hg10 mi
5:15 AM70 °FClear.No wind83%29.93 "Hg10 mi
4:55 AM72 °FPassing clouds.5 mph78%29.93 "Hg10 mi
4:35 AM72 °FPassing clouds.7 mph78%29.93 "Hg10 mi
4:15 AM72 °FClear.7 mph78%29.93 "Hg10 mi
3:55 AM72 °FPassing clouds.7 mph78%29.93 "Hg10 mi
3:35 AM72 °FPassing clouds.7 mph78%29.93 "Hg10 mi
3:15 AM72 °FPassing clouds.8 mph78%29.94 "Hg10 mi
2:55 AM72 °FPassing clouds.8 mph78%29.94 "Hg10 mi
2:35 AM72 °FClear.7 mph78%29.95 "Hg10 mi
2:15 AM72 °FClear.3 mph78%29.95 "Hg10 mi
1:55 AM72 °FClear.3 mph78%29.96 "Hg10 mi
1:35 AM72 °FPassing clouds.6 mph78%29.96 "Hg10 mi
1:15 AM72 °FPassing clouds.5 mph78%29.97 "Hg10 mi
12:55 AM72 °FClear.6 mph78%29.97 "Hg10 mi
12:35 AM73 °FClear.6 mph74%29.97 "Hg10 mi
12:15 AM73 °FClear.6 mph74%29.97 "Hg10 mi
11:55 PM
Aug 28
73 °FClear.6 mph74%29.97 "Hg10 mi
11:35 PM73 °FClear.6 mph74%29.97 "Hg10 mi
11:15 PM73 °FClear.6 mph74%29.97 "Hg10 mi
10:55 PM75 °FClear.6 mph69%29.97 "Hg10 mi
10:35 PM75 °FClear.6 mph69%29.97 "Hg10 mi
10:15 PM75 °FClear.6 mph69%29.98 "Hg10 mi
9:55 PM77 °FClear.5 mph65%29.98 "Hg10 mi
9:35 PM77 °FClear.6 mph65%29.98 "Hg10 mi
9:15 PM79 °FClear.5 mph58%29.97 "Hg10 mi
8:55 PM79 °FClear.6 mph58%29.97 "Hg10 mi
8:35 PM79 °FSunny.7 mph58%29.96 "Hg10 mi
8:15 PM81 °FSunny.6 mph51%29.96 "Hg10 mi
7:55 PM82 °FSunny.5 mph48%29.96 "Hg10 mi
7:35 PM84 °FSunny.5 mph45%29.96 "Hg10 mi
6:55 PM88 °FSunny.7 mph40%29.94 "Hg10 mi
6:35 PM88 °FSunny.7 mph38%29.94 "Hg10 mi
6:15 PM88 °FScattered clouds.6 mph40%29.94 "Hg10 mi
5:55 PM90 °FPartly sunny.12 mph38%29.95 "Hg10 mi
5:35 PM91 °FPartly sunny.10 mph34%29.95 "Hg10 mi
5:15 PM90 °FPartly sunny.8 mph38%29.95 "Hg10 mi
4:55 PM91 °FScattered clouds.9 mph36%29.96 "Hg10 mi
4:35 PM90 °FSunny.8 mph38%29.97 "Hg10 mi
4:15 PM91 °FScattered clouds.14 mph36%29.97 "Hg10 mi
3:55 PM90 °FScattered clouds.9 mph38%29.98 "Hg10 mi
3:35 PM90 °FPassing clouds.9 mph41%30.00 "Hg10 mi
3:15 PM90 °FScattered clouds.10 mph38%30.01 "Hg10 mi
Weather by CustomWeather, © 2014

See weather overviewHow to use our weather pages